Content
SEND FEEDBACK

Daily
Averages
Monthly
Summary
United States of America

TREVILIANS, VIRGINIA


Home > North America > United States > Virginia
Elevation: 389 feet     Latitude: 38 02N     Longitude: 078 00W

WEATHER
 
SELECT A DAY
Number of Records: 330,069;   Date Range: 2/15/00 - 9/21/14
 
SHARE

PRINT THIS DATA

[ ← Previous Day ]
WEATHER ALMANAC - JANUARY 31, 2013
[ Next Day → ]
[ °C ]   °F
Weather ElementAverageHighLow
Temperature42.5 °F60.8 °F (12:35 am)28.4 °F (11:35 pm)
Dewpoint29 °F60.8 °F (12:35 am)17.6 °F (4:35 pm)
Humidity60.3 %100 % (12:35 am)39 % (3:15 pm)
Barometer29.67 in29.93 in (10:15 pm)29.25 in (2:35 am)
Wind Speed14.9 mph29.9 mph (1:15 pm)
Wind Gust36.8 mph (1:15 pm)
Weather ElementAverage
Visibility9.8 mi
Wind DirectionSSW (204.3 °)

Weather ElementTotal
Precipitation0.47 in
Heating Degree Days20.4 (Base 65)
Averaged from 69 records on January 31, 2013
WEATHER CONDITIONS BREAKOUT
WIND DIRECTION BREAKOUT
WEATHER BY HOUR - JANUARY 31, 2013
[ °C ]   °F
Local TimeTemperatureDewpointHumidityBarometerVisibilityWind DirectionWind SpeedGust SpeedPrecipitationEventsConditions
12:35 AM60.8 °F60.8 °F100 %29.28 in4.0 miSSW (210°)18.4 mph31.1 mph0.14 inRainHeavy Rain
12:55 AM59.0 °F59.0 °F100 %29.28 in7.0 miSSW (210°)10.4 mph17.3 mph0.18 inRainRain
1:15 AM59.0 °F57.2 °F94 %29.29 in5.0 miSW (220°)20.7 mph28.8 mph0.03 inRainRain
1:35 AM57.2 °F55.4 °F94 %29.29 in10.0 miSSW (210°)12.7 mph27.6 mph0.04 inRainRain
1:55 AM55.4 °F55.4 °F100 %29.29 in10.0 miSouth (190°)8.1 mph17.3 mph0.05 inRainRain
2:15 AM55.4 °F55.4 °F100 %29.28 in10.0 miSouth (190°)11.5 mph18.4 mph0.01 inRainLight Rain
2:35 AM55.4 °F51.8 °F88 %29.25 in10.0 miSouth (180°)17.3 mph24.2 mph0.01 inOvercast
2:55 AM55.4 °F51.8 °F88 %29.27 in10.0 miSouth (190°)16.1 mph25.3 mph0.01 inOvercast
3:15 AM55.4 °F48.2 °F77 %29.28 in10.0 miSW (220°)17.3 mph32.2 mphScattered Clouds
3:35 AM53.6 °F46.4 °F77 %29.29 in10.0 miSSW (210°)19.6 mph28.8 mphClear
3:55 AM53.6 °F46.4 °F77 %29.31 in10.0 miSSW (210°)19.6 mph27.6 mphScattered Clouds
4:15 AM53.6 °F44.6 °F72 %29.34 in10.0 miWSW (250°)17.3 mph27.6 mphMostly Cloudy
4:35 AM51.8 °F37.4 °F58 %29.37 in10.0 miSW (230°)17.3 mph27.6 mphMostly Cloudy
4:55 AM50.0 °F37.4 °F62 %29.39 in10.0 miWSW (240°)15.0 mph24.2 mphMostly Cloudy
5:15 AM48.2 °F37.4 °F66 %29.41 in10.0 miSW (220°)9.2 mph16.1 mphScattered Clouds
5:35 AM46.4 °F35.6 °F66 %29.43 in10.0 miSW (230°)11.5 mph19.6 mphScattered Clouds
5:55 AM46.4 °F32.0 °F57 %29.46 in10.0 miSW (220°)23.0 mph35.7 mphClear
6:15 AM46.4 °F32.0 °F57 %29.48 in10.0 miSW (230°)21.9 mph31.1 mphClear
6:35 AM44.6 °F32.0 °F61 %29.50 in10.0 miSW (220°)17.3 mph27.6 mphClear
6:55 AM42.8 °F30.2 °F61 %29.53 in10.0 miSW (220°)19.6 mph28.8 mphClear
7:15 AM42.8 °F30.2 °F61 %29.55 in10.0 miSW (220°)19.6 mph25.3 mphClear
7:55 AM42.8 °F28.4 °F57 %29.58 in10.0 miWSW (250°)27.6 mph34.5 mphScattered Clouds
8:15 AM41.0 °F26.6 °F57 %29.60 in10.0 miWSW (240°)16.1 mph28.8 mphClear
8:35 AM41.0 °F28.4 °F61 %29.63 in10.0 miSW (230°)12.7 mph31.1 mphClear
8:55 AM42.8 °F28.4 °F57 %29.65 in10.0 miSW (230°)11.5 mph24.2 mphClear
9:15 AM42.8 °F26.6 °F53 %29.66 in10.0 miSW (230°)8.1 mph20.7 mphClear
9:35 AM42.8 °F26.6 °F53 %29.67 in10.0 miSW (230°)16.1 mph23.0 mphScattered Clouds
9:55 AM42.8 °F26.6 °F53 %29.68 in10.0 miSW (230°)23.0 mph28.8 mphClear
10:15 AM42.8 °F26.6 °F53 %29.70 in10.0 miWSW (240°)20.7 mph32.2 mphClear
10:35 AM42.8 °F24.8 °F49 %29.71 in10.0 miSW (220°)19.6 mph26.5 mphClear
10:55 AM42.8 °F24.8 °F49 %29.72 in10.0 miSW (230°)23.0 mph33.4 mphScattered Clouds
11:15 AM44.6 °F24.8 °F46 %29.72 in10.0 miSW (220°)21.9 mph32.2 mphScattered Clouds
11:35 AM44.6 °F28.4 °F53 %29.73 in10.0 miSW (230°)19.6 mph27.6 mphScattered Clouds
11:55 AM42.8 °F23.0 °F46 %29.73 in10.0 miSW (230°)21.9 mph31.1 mphScattered Clouds
12:15 PM42.8 °F23.0 °F46 %29.73 in10.0 miSSW (210°)13.8 mph19.6 mphScattered Clouds
12:35 PM42.8 °F24.8 °F49 %29.73 in10.0 miSSW (210°)23.0 mph32.2 mphMostly Cloudy
12:55 PM42.8 °F23.0 °F46 %29.73 in10.0 miWSW (250°)18.4 mph26.5 mphMostly Cloudy
1:15 PM42.8 °F21.2 °F42 %29.73 in10.0 miWSW (250°)29.9 mph36.8 mphScattered Clouds
1:35 PM42.8 °F21.2 °F42 %29.73 in10.0 miWSW (250°)23.0 mph33.4 mphClear
1:55 PM42.8 °F21.2 °F42 %29.74 in10.0 miWSW (240°)19.6 mph31.1 mphScattered Clouds
2:15 PM41.0 °F21.2 °F45 %29.75 in10.0 miWSW (240°)18.4 mph25.3 mphMostly Cloudy
2:35 PM41.0 °F21.2 °F45 %29.76 in10.0 miSW (220°)13.8 mph21.9 mphOvercast
2:55 PM42.8 °F23.0 °F46 %29.77 in10.0 miSSW (210°)17.3 mph25.3 mphOvercast
3:15 PM42.8 °F19.4 °F39 %29.79 in10.0 miSW (220°)25.3 mph33.4 mphOvercast
3:35 PM41.0 °F19.4 °F42 %29.80 in10.0 miSW (230°)17.3 mph26.5 mphOvercast
3:55 PM41.0 °F19.4 °F42 %29.80 in10.0 miSSW (200°)18.4 mph26.5 mphOvercast
4:15 PM41.0 °F19.4 °F42 %29.82 in10.0 miSW (230°)28.8 mph34.5 mphOvercast
4:35 PM37.4 °F17.6 °F45 %29.83 in10.0 miSW (230°)24.2 mph32.2 mphMostly Cloudy
4:55 PM37.4 °F17.6 °F45 %29.84 in10.0 miSW (230°)17.3 mph29.9 mphScattered Clouds
5:15 PM37.4 °F17.6 °F45 %29.85 in10.0 miSW (230°)12.7 mph28.8 mphOvercast
5:35 PM37.4 °F19.4 °F48 %29.86 in10.0 miSW (220°)12.7 mphOvercast
5:55 PM37.4 °F19.4 °F48 %29.88 in10.0 miWSW (250°)11.5 mphOvercast
6:15 PM35.6 °F19.4 °F52 %29.88 in10.0 miWSW (240°)13.8 mph17.3 mphOvercast
6:35 PM35.6 °F21.2 °F56 %29.89 in10.0 miSW (220°)4.6 mphOvercast
6:55 PM33.8 °F21.2 °F60 %29.90 in10.0 miSW (220°)8.1 mphScattered Clouds
7:15 PM35.6 °F21.2 °F56 %29.90 in10.0 miSW (220°)12.7 mph20.7 mphClear
7:35 PM33.8 °F21.2 °F60 %29.91 in10.0 miSW (220°)8.1 mphClear
7:55 PM33.8 °F19.4 °F56 %29.91 in10.0 miSW (230°)9.2 mphClear
8:15 PM33.8 °F19.4 °F56 %29.91 in10.0 miSW (230°)10.4 mphClear
8:35 PM32.0 °F19.4 °F60 %29.91 in10.0 miSW (230°)5.8 mphClear
8:55 PM32.0 °F19.4 °F60 %29.91 in10.0 miSSW (200°)3.5 mphClear
9:15 PM32.0 °F21.2 °F64 %29.92 in10.0 miCalmScattered Clouds
9:35 PM32.0 °F19.4 °F60 %29.92 in10.0 miSW (220°)12.7 mph17.3 mphScattered Clouds
10:15 PM32.0 °F19.4 °F60 %29.93 in10.0 miSW (220°)5.8 mphScattered Clouds
10:35 PM32.0 °F19.4 °F60 %29.93 in10.0 miCalmScattered Clouds
10:55 PM30.2 °F21.2 °F69 %29.93 in10.0 miCalmClear
11:15 PM30.2 °F21.2 °F69 %29.93 in10.0 miCalmClear
11:35 PM28.4 °F23.0 °F80 %29.92 in10.0 miCalmMostly Cloudy
11:55 PM28.4 °F23.0 °F80 %29.92 in10.0 miCalmScattered Clouds
Hourly data recorded from KOMH, located miles away from Trevilians, Virginia







STORIES FROM OUR PARTNERS